Change the Weather History Date:

Tuesday, December 17, 2013

  Actual Average Record
Temperature  
Mean Temperature 6 °F 26 °F  
Max Temperature 18 °F 33 °F 60 °F (2000)
Min Temperature -7 °F 19 °F -12 °F (1932)
Degree Days  
Heating Degree Days 59 39  
Month to date heating degree days 673 609  
Since 1 July heating degree days 2353 2260  
Cooling Degree Days 0 0  
Month to date cooling degree days 0 0  
Year to date cooling degree days 433 290  
Moisture  
Dew Point 5 °F    
Average Humidity 83    
Maximum Humidity 92    
Minimum Humidity 74    
Precipitation  
Precipitation 0.21 in 0.09 in 2.71 in (2000)
Month to date precipitation 1.13 1.68  
Year to date precipitation 37.94 44.06  
Sea Level Pressure  
Sea Level Pressure 30.07 in    
Wind  
Wind Speed 3 mph (NE)    
Max Wind Speed 9 mph    
Max Gust Speed 14 mph    
Visibility 4 miles    
Events Fog , Snow    
T = Trace of Precipitation, MM = Missing Value Source: NWS Daily Summary

Daily Weather History Graph

Daily Weather History Graph

Search for Another Location

Airport or City:

Trip Planner

Search our weather history database for the weather conditions in past years. The results will help you decide how hot, cold, wet, or windy it might be!

Date:

Astronomy

Dec. 17, 2013 Rise Set
Actual Time 7:17 AM EST 4:21 PM EST
Civil Twilight 6:45 AM EST 4:53 PM EST
Nautical Twilight 6:09 AM EST 5:29 PM EST
Astronomical Twilight 5:35 AM EST 6:03 PM EST
Moon 5:00 PM EST (12/17) 7:10 AM EST (12/17)
Length of Visible Light 10h 08m
Length of Day
9h 04m
Full, 100% of the Moon is Illuminated
Dec 17
Full
Dec 25
Last Quarter
Jan 1
New
Jan 7
First Quarter
Jan 15
Full

Hourly Weather History & Observations

Time (EST) Temp. Windchill Dew Point Humidity Pressure Visibility Wind Dir Wind Speed Gust Speed Precip Events Conditions
12:54 AM 1.0 °F -11.7 °F -2.9 °F 83% 30.21 in 10.0 mi West 6.9 mph - N/A   Clear
1:54 AM 1.9 °F -7.6 °F -2.0 °F 83% 30.22 in 10.0 mi SW 4.6 mph - N/A   Clear
2:54 AM -0.0 °F - -4.0 °F 83% 30.23 in 10.0 mi Calm Calm - N/A   Clear
3:54 AM -0.9 °F - -5.1 °F 83% 30.22 in 10.0 mi Calm Calm - N/A   Clear
4:54 AM -2.9 °F - -6.0 °F 87% 30.22 in 10.0 mi Calm Calm - N/A   Clear
5:54 AM -2.9 °F - -6.0 °F 87% 30.24 in 10.0 mi Calm Calm - N/A   Clear
6:54 AM -4.0 °F - -7.1 °F 87% 30.21 in 10.0 mi Calm Calm - N/A   Partly Cloudy
7:54 AM -0.9 °F -8.9 °F -5.1 °F 83% 30.20 in 7.0 mi NNE 3.5 mph - N/A   Overcast
8:22 AM 1.4 °F - -2.2 °F 85% 30.10 in 1.8 mi Calm Calm - 0.00 in Snow Light Snow
8:36 AM 1.4 °F - -2.2 °F 85% 30.09 in 0.8 mi Calm Calm - 0.00 in Snow Light Snow
8:51 AM 1.4 °F - -2.2 °F 85% 30.10 in 1.0 mi Calm Calm - 0.00 in Snow Light Snow
8:54 AM 1.9 °F - -2.0 °F 83% 30.21 in 0.8 mi Calm Calm - 0.00 in Snow Light Snow
9:35 AM 3.2 °F - 1.4 °F 92% 30.09 in 0.2 mi Calm Calm - 0.01 in Fog , Snow Snow
9:51 AM 3.2 °F - 1.4 °F 92% 30.09 in 0.5 mi Calm Calm - 0.02 in Fog , Snow Snow
9:54 AM 5.0 °F - 1.0 °F 84% 30.19 in 0.5 mi Calm Calm - 0.02 in Fog , Snow Light Snow
10:07 AM 5.0 °F - 1.4 °F 85% 30.09 in 1.0 mi Calm Calm - 0.00 in Snow Light Snow
10:15 AM 5.0 °F - 1.4 °F 85% 30.09 in 0.5 mi Calm Calm - 0.01 in Fog , Snow Snow
10:25 AM 6.8 °F -0.1 °F 1.4 °F 79% 30.09 in 1.0 mi NE 3.5 mph - 0.01 in Snow Light Snow
10:54 AM 7.0 °F -3.3 °F 3.9 °F 87% 30.16 in 1.2 mi NE 5.8 mph - 0.01 in Snow Light Snow
11:38 AM 10.4 °F 4.0 °F 6.8 °F 85% 30.03 in 2.5 mi NNE 3.5 mph - 0.00 in Snow Light Snow
11:54 AM 10.0 °F 1.8 °F 7.0 °F 87% 30.11 in 2.0 mi NNE 4.6 mph - 0.01 in Snow Light Snow
12:01 PM 10.4 °F - 6.8 °F 85% 30.00 in 1.8 mi Calm Calm - 0.00 in Snow Light Snow
12:16 PM 10.4 °F - 8.6 °F 92% 29.99 in 2.5 mi Calm Calm - 0.00 in   Overcast
12:31 PM 12.2 °F - 8.6 °F 85% 29.99 in 1.5 mi Calm Calm - 0.00 in Snow Light Snow
12:49 PM 14.0 °F 5.1 °F 8.6 °F 79% 29.97 in 0.8 mi ENE 5.8 mph - 0.00 in Snow Light Snow
12:54 PM 14.0 °F 6.5 °F 10.0 °F 84% 30.08 in 0.8 mi NE 4.6 mph - 0.00 in Snow Light Snow
1:02 PM 14.0 °F 5.1 °F 10.4 °F 86% 29.97 in 0.8 mi ENE 5.8 mph - 0.00 in Snow Light Snow
1:13 PM 14.0 °F 6.5 °F 10.4 °F 86% 29.96 in 1.2 mi ENE 4.6 mph - 0.00 in Snow Light Snow
1:47 PM 14.0 °F 5.1 °F 10.4 °F 86% 29.94 in 0.5 mi ENE 5.8 mph - 0.01 in Fog , Snow Snow
1:54 PM 14.0 °F 5.1 °F 10.0 °F 84% 30.04 in 0.2 mi ENE 5.8 mph - 0.01 in Fog , Snow Snow
2:39 PM 15.8 °F 8.6 °F 10.4 °F 79% 29.94 in 0.2 mi NE 4.6 mph - 0.04 in Fog , Snow Snow
2:54 PM 15.1 °F 6.4 °F 10.9 °F 84% 30.04 in 0.2 mi NE 5.8 mph - 0.05 in Fog , Snow Snow
3:28 PM 14.0 °F 5.1 °F 10.4 °F 86% 29.95 in 0.2 mi ENE 5.8 mph - 0.02 in Fog , Snow Snow
3:54 PM 14.0 °F 8.2 °F 10.0 °F 84% 30.08 in 0.2 mi NNE 3.5 mph - 0.04 in Fog , Snow Snow
4:17 PM 12.2 °F 2.9 °F 10.4 °F 92% 29.97 in 0.5 mi NE 5.8 mph - 0.01 in Fog , Snow Light Snow
4:54 PM 12.9 °F 2.6 °F 9.0 °F 84% 30.08 in 0.8 mi NE 6.9 mph - 0.04 in Snow Light Snow
5:54 PM 12.9 °F 3.8 °F 10.0 °F 88% 30.07 in 0.8 mi NE 5.8 mph - 0.02 in Snow Light Snow
5:59 PM 12.2 °F 4.3 °F 10.4 °F 92% 29.96 in 1.2 mi NE 4.6 mph - 0.01 in Snow Light Snow
6:28 PM 12.2 °F 4.3 °F 10.4 °F 92% 29.96 in 2.5 mi NE 4.6 mph - 0.01 in Snow Light Snow
6:35 PM 12.2 °F 6.1 °F 10.4 °F 92% 29.97 in 3.0 mi NNE 3.5 mph - 0.01 in Snow Light Snow
6:54 PM 14.0 °F 6.5 °F 10.0 °F 84% 30.07 in 4.0 mi NE 4.6 mph - 0.01 in   Overcast
7:54 PM 15.1 °F - 10.0 °F 80% 30.05 in 10.0 mi Calm Calm - N/A   Overcast
8:54 PM 16.0 °F - 10.9 °F 81% 30.04 in 10.0 mi Calm Calm - N/A   Overcast
9:54 PM 17.1 °F - 10.9 °F 77% 30.02 in 10.0 mi Calm Calm - N/A   Overcast
10:54 PM 17.1 °F - 12.0 °F 81% 30.00 in 10.0 mi Calm Calm - N/A   Overcast
11:54 PM 17.1 °F - 12.9 °F 84% 29.97 in 10.0 mi Calm Calm - N/A   Overcast